Tracking 30744 objects as of 23-Jun-2025
HD Live streaming from Space Station
objects crossing your sky now

COSMOS 1247

Track COSMOS 1247 now!
COSMOS 1247 is classified as:


NORAD ID: 12303
Int'l Code: 1981-016A
Perigee: 3,373.8 km
Apogee: 36,663.4 km
Inclination: 68.6 °
Period: 711.1 minutes
Semi major axis: 26389 km
RCS: 8.0719 m2 (large)
Launch date: February 19, 1981
Source: Commonwealth of Independent States (former USSR) (CIS)
Launch site: PLESETSK MISSILE AND SPACE COMPLEX (PKMTR)
Your satellite tracking list
Your tracking list is empty




NASA's NSSDC Master Catalog

Two Line Element Set (TLE):
1 12303U 81016A   25173.61687540 -.00000342  00000-0  00000-0 0  9990
2 12303  68.6427  20.1666 6307335 349.6159   1.9470  2.02513587327892
Source of the keplerian elements: AFSPC